N4FLB Weather Reports


Display with metric or nautical units.
time (UTC)temp
F
wind
direction
speed
MPH
gust
MPH
rain 1hr
in
rain 24hr
in
rain mn
in
humidity
%
barometer
mb
20260507185405 74 338 3.0 9.0 0.00 4.96 0.36 82 1014.6
20260507184505 74 341 4.0 9.0 0.00 4.96 0.36 81 1014.6
20260507183626 74 349 4.0 11.0 0.00 4.96 0.36 83 1014.7
20260507182705 74 344 4.0 12.0 0.00 4.96 0.36 83 1014.7
20260507181805 74 326 5.0 11.0 0.00 4.96 0.36 83 1014.7
20260507180905 74 334 4.0 8.0 0.00 4.96 0.36 82 1014.6
20260507180005 74 338 4.0 10.0 0.00 4.96 0.36 82 1014.9
20260507175405 74 328 4.0 9.0 0.00 4.96 0.36 84 1015.0
20260507174505 74 321 5.0 9.0 0.00 4.96 0.36 83 1014.8
20260507173605 74 339 3.0 6.0 0.00 4.96 0.36 84 1014.9
20260507172705 74 335 2.0 5.0 0.00 4.96 0.36 84 1014.8
20260507171804 73 315 1.0 5.0 0.00 4.96 0.36 87 1014.9
20260507170925 72 6 3.0 5.0 0.00 4.96 0.36 86 1015.2
20260507170005 72 328 3.0 8.0 0.00 4.96 0.36 87 1015.3
20260507165425 72 344 2.0 10.0 0.00 4.96 0.36 88 1015.1
20260507164504 71 324 3.0 9.0 0.00 4.96 0.36 89 1015.1
20260507163604 71 328 3.0 8.0 0.00 4.96 0.36 89 1015.1
20260507162725 71 323 4.0 10.0 0.00 4.96 0.36 90 1015.3
20260507161804 71 349 3.0 8.0 0.00 4.96 0.36 90 1015.3
20260507160904 71 341 4.0 9.0 0.00 4.96 0.36 90 1015.4
20260507160004 71 338 4.0 9.0 0.00 4.96 0.36 92 1015.1
20260507155404 70 328 4.0 9.0 0.00 4.96 0.36 92 1014.9
20260507154504 70 315 4.0 10.0 0.00 4.96 0.36 94 1014.8
20260507153605 70 328 5.0 10.0 0.00 4.96 0.36 94 1014.6
20260507152704 70 350 3.0 9.0 0.00 4.96 0.36 96 1014.4
20260507151826 69 330 3.0 9.0 0.00 4.96 0.36 98 1014.3
20260507150904 68 336 3.0 8.0 0.00 4.96 0.36 99 1014.4
20260507150004 68 332 3.0 9.0 0.00 4.96 0.36 100 1014.2
20260507145404 67 336 3.0 9.0 0.00 4.96 0.36 100 1014.4
20260507144504 66 327 3.0 9.0 0.00 4.96 0.36 100 1014.3
20260507143604 66 327 3.0 9.0 0.00 4.96 0.36 100 1014.4
20260507142725 66 335 2.0 8.0 0.00 4.96 0.36 100 1014.4
20260507141804 66 332 4.0 12.0 0.00 4.96 0.36 100 1014.3
20260507140925 66 335 3.0 10.0 0.01 4.96 0.36 100 1014.3
20260507140004 66 336 4.0 10.0 0.01 4.96 0.36 100 1014.2
20260507135404 66 336 4.0 9.0 0.01 4.96 0.36 100 1014.3
20260507134504 67 333 3.0 10.0 0.01 4.96 0.36 100 1013.9
20260507133604 67 339 4.0 11.0 0.01 4.96 0.36 100 1013.7
20260507132704 67 331 5.0 10.0 0.01 4.96 0.36 100 1013.5
20260507131804 68 332 4.0 12.0 0.01 4.96 0.36 100 1013.6
20260507130904 68 342 6.0 13.0 0.00 4.95 0.35 100 1013.5
20260507130004 70 325 3.0 12.0 0.00 4.95 0.35 100 1013.4
20260507125404 70 321 3.0 7.0 0.00 4.95 0.35 100 1013.3
20260507124525 70 307 3.0 9.0 0.00 4.95 0.35 100 1013.2
20260507123604 70 311 2.0 6.0 0.00 4.95 0.35 100 1013.0
20260507122705 71 318 3.0 7.0 0.01 4.95 0.35 100 1012.6
20260507121803 71 322 2.0 7.0 0.01 4.95 0.35 100 1012.4
20260507120903 71 315 2.0 8.0 0.01 4.95 0.35 100 1012.3
20260507120004 71 313 1.0 4.0 0.01 4.95 0.35 100 1012.3
20260507115403 71 308 1.0 4.0 0.01 4.95 0.35 100 1011.9
20260507114524 71 315 1.0 2.0 0.01 4.95 0.35 100 1011.5
20260507113604 71 326 1.0 4.0 0.01 4.95 0.35 100 1011.5
20260507112703 71 318 1.0 3.0 0.00 4.94 0.34 100 1011.5
20260507111803 71 320 1.0 3.0 0.00 4.94 0.34 100 1011.4
20260507110903 71 329 0.0 1.0 0.00 4.94 0.34 100 1011.3
20260507110003 71 341 0.0 1.0 0.00 4.94 0.34 100 1011.4
20260507105403 71 343 0.0 1.0 0.00 4.94 0.34 100 1011.4
20260507104504 71 198 0.0 1.0 0.00 4.94 0.34 100 1011.2
20260507103603 71 198 0.0 1.0 0.00 4.94 0.34 100 1011.2
20260507102705 71 198 0.0 1.0 0.00 4.94 0.34 100 1010.7
20260507101805 71 198 0.0 1.0 0.01 4.94 0.34 100 1010.8
20260507100905 71 198 0.0 1.0 0.03 4.94 0.34 100 1010.9
20260507100005 71 219 0.0 2.0 0.04 4.94 0.34 100 1010.9
20260507095405 71 238 0.0 2.0 0.04 4.94 0.34 100 1010.9
20260507094526 71 330 0.0 1.0 0.04 4.94 0.34 100 1011.1
20260507093605 71 331 0.0 2.0 0.04 4.94 0.34 100 1011.4
20260507092705 71 290 1.0 4.0 0.04 4.94 0.34 100 1011.4
20260507091805 71 327 2.0 5.0 0.03 4.93 0.33 100 1011.6
20260507090905 71 235 1.0 4.0 0.01 4.91 0.31 100 1011.3
20260507090005 71 264 1.0 6.0 0.00 4.90 0.30 100 1011.1
20260507085425 71 265 1.0 6.0 0.00 4.90 0.30 100 1010.9
20260507084504 71 286 0.0 2.0 0.00 4.90 0.30 100 1011.1
20260507083626 71 259 1.0 4.0 0.00 4.90 0.30 100 1010.9
20260507082725 71 228 1.0 4.0 0.00 4.90 0.30 100 1010.7
20260507081805 71 212 2.0 6.0 0.00 4.90 0.30 100 1010.3
20260507080925 71 192 2.0 6.0 0.00 4.90 0.30 100 1010.4
20260507080025 71 208 2.0 8.0 0.01 4.90 0.30 100 1010.4
20260507075425 71 198 3.0 9.0 0.01 4.90 0.30 100 1010.4
20260507074504 71 198 3.0 9.0 0.05 4.90 0.30 100 1010.8
20260507073604 70 200 3.0 7.0 0.05 4.90 0.30 100 1010.8
20260507072704 70 196 3.0 9.0 0.05 4.90 0.30 100 1010.9
20260507071805 70 189 2.0 8.0 0.05 4.90 0.30 100 1011.1
20260507070904 70 164 3.0 7.0 0.10 4.90 0.30 100 1011.4
20260507070009 70 159 0.0 3.0 0.11 4.89 0.29 100 1011.5
20260507065404 70 170 1.0 3.0 0.11 4.89 0.29 100 1011.6
20260507064504 70 147 3.0 8.0 0.07 4.85 0.25 100 1011.4
20260507063625 69 172 1.0 4.0 0.07 4.85 0.25 100 1012.1
20260507062704 69 123 2.0 6.0 0.12 4.85 0.25 100 1011.5
20260507061804 69 105 1.0 4.0 0.17 4.85 0.25 100 1013.0
20260507060925 69 187 1.0 3.0 0.16 4.80 0.21 100 1013.6
20260507060004 69 146 2.0 4.0 0.18 4.78 0.18 100 1013.0
20260507055404 69 158 2.0 5.0 0.20 4.78 0.18 100 1013.4
20260507054504 69 157 4.0 8.0 0.23 4.78 0.18 100 1013.2
20260507053625 69 148 7.0 12.0 0.81 4.78 0.18 100 1012.3
20260507052704 69 139 2.0 8.0 0.95 4.73 0.13 100 1013.6
20260507051804 69 327 3.0 6.0 0.91 4.68 0.08 100 1014.3
20260507050904 69 132 3.0 7.0 0.92 4.64 0.04 100 1013.2
20260507050005 69 138 4.0 8.0 1.44 4.60 0.00 100 1013.0
20260507045404 69 144 4.0 8.0 1.71 4.58 4.58 100 1013.6
20260507044504 69 172 4.0 10.0 1.73 4.55 4.55 100 1014.1
20260507042704 69 143 6.0 10.0 1.15 3.78 3.78 100 1012.9
20260507041803 69 166 4.0 9.0 1.44 3.77 3.77 100 1013.2
20260507040904 69 64 4.0 10.0 1.66 3.72 3.72 100 1013.3
20260507034504 69 114 4.0 8.0 1.49 2.82 2.82 100 1013.8
20260507033604 69 78 1.0 4.0 1.47 2.79 2.79 100 1013.9
20260507032703 69 180 3.0 9.0 1.36 2.63 2.63 100 1015.4
20260507031804 69 147 8.0 22.0 1.06 2.33 2.33 100 1014.0
20260507025403 69 78 3.0 8.0 0.09 1.36 1.36 100 1013.2
20260507024503 69 131 2.0 7.0 0.06 1.33 1.33 100 1013.7
20260507023624 69 137 3.0 7.0 0.05 1.32 1.32 100 1013.1
20260507022703 69 160 4.0 8.0 0.00 1.27 1.27 100 1013.7
20260507021803 69 158 3.0 8.0 0.00 1.27 1.27 100 1013.6
20260507020903 69 150 2.0 5.0 0.01 1.27 1.27 100 1013.9
20260507020003 69 152 2.0 4.0 0.05 1.27 1.27 100 1013.7
20260507015403 69 154 1.0 4.0 0.15 1.27 1.27 100 1013.3
20260507014524 69 159 1.0 4.0 0.33 1.27 1.27 100 1013.8
20260507013624 69 141 1.0 4.0 0.67 1.27 1.27 100 1013.3
20260507012703 69 123 0.0 3.0 0.71 1.27 1.27 100 1013.5
20260507011805 69 136 2.0 7.0 0.72 1.27 1.27 100 1013.5
20260507010926 69 152 3.0 7.0 0.76 1.26 1.26 100 1013.2
20260507010005 69 126 2.0 6.0 0.78 1.22 1.22 100 1013.3
20260507005405 70 118 4.0 11.0 0.69 1.12 1.13 100 1013.4
20260507004505 70 176 4.0 11.0 0.57 0.94 0.94 100 1014.5
20260507003605 70 192 2.0 8.0 0.31 0.60 0.60 99 1014.7
20260507002705 70 165 2.0 6.0 0.27 0.56 0.56 99 1013.1
20260507001805 70 154 4.0 10.0 0.28 0.55 0.55 99 1012.8
20260507000905 70 147 2.0 7.0 0.24 0.50 0.50 99 1012.7
20260507000005 70 120 2.0 5.0 0.18 0.44 0.44 99 1013.2
20260506235405 70 69 1.0 4.0 0.17 0.43 0.43 99 1013.2
20260506234505 70 165 2.0 4.0 0.11 0.37 0.37 98 1013.4
20260506233626 71 154 2.0 5.0 0.03 0.29 0.29 98 1013.8
20260506232705 71 175 2.0 6.0 0.03 0.29 0.29 99 1013.9
20260506231825 72 178 2.0 5.0 0.01 0.27 0.28 99 1013.9
20260506230905 72 194 2.0 7.0 0.01 0.26 0.26 99 1014.1
20260506230026 73 177 2.0 7.0 0.02 0.26 0.26 99 1013.3
20260506225425 73 196 1.0 4.0 0.04 0.26 0.26 99 1013.5
20260506224504 73 186 1.0 5.0 0.09 0.26 0.26 99 1013.2
20260506223626 73 173 1.0 3.0 0.18 0.26 0.26 99 1013.7
20260506222704 73 299 1.0 3.0 0.24 0.26 0.26 99 1013.8
20260506221804 73 204 1.0 3.0 0.25 0.26 0.26 99 1013.9
20260506220904 73 333 1.0 3.0 0.24 0.25 0.25 98 1013.9
20260506220005 73 342 0.0 2.0 0.23 0.24 0.24 98 1013.3
20260506215404 73 71 0.0 2.0 0.21 0.22 0.22 97 1013.3
20260506214504 73 354 1.0 3.0 0.16 0.17 0.17 96 1013.7
20260506213604 74 359 1.0 2.0 0.07 0.08 0.08 96 1013.3
20260506212725 74 120 2.0 4.0 0.01 0.02 0.03 95 1012.8
20260506211804 74 110 1.0 3.0 0.00 0.01 0.01 95 1013.2
20260506210925 74 85 0.0 2.0 0.00 0.01 0.01 95 1013.0
20260506210025 74 75 0.0 1.0 0.01 0.01 0.01 95 1013.1
20260506205404 75 82 0.0 2.0 0.01 0.01 0.01 95 1013.6
20260506204525 75 124 1.0 2.0 0.01 0.01 0.01 94 1013.8
20260506203604 75 132 0.0 1.0 0.01 0.01 0.01 94 1014.2
20260506202704 75 178 0.0 2.0 0.01 0.01 0.01 92 1014.4
20260506201804 76 265 1.0 3.0 0.01 0.01 0.01 91 1014.6
20260506200904 76 216 1.0 5.0 0.01 0.01 0.01 89 1014.2
20260506200025 77 207 2.0 7.0 0.00 0.00 0.00 86 1014.9
20260506195425 78 219 3.0 7.0 0.00 0.00 0.00 85 1015.1
20260506194504 78 200 2.0 6.0 0.00 0.00 0.00 84 1014.9
20260506193625 78 201 1.0 5.0 0.00 0.00 0.00 84 1015.0
20260506192704 78 201 3.0 9.0 0.00 0.00 0.00 83 1015.3
20260506191804 79 199 3.0 7.0 0.00 0.00 0.00 82 1015.3
20260506190903 79 204 3.0 7.0 0.00 0.00 0.00 83 1015.5
20260506190004 79 191 3.0 8.0 0.00 0.00 0.00 83 1015.9